Location: Unnamed
(48.8836°N, 1.0859°W)
Time: 14:10:08
(UTC+02:00)

ISS - Pass Details

Date: 04 October 2021
Orbit: 417 x 423 km, 51.6° (Epoch: 16 October)

Event Time Altitude Azimuth Distance (km) Brightness Sun altitude
Rises 21:05:10 0° 287° (WNW) 2,365 1.9 -15.3°
Reaches altitude 10° 21:07:32 10° 272° (W) 1,499 0.4 -15.7°
Maximum altitude 21:10:14 22° 219° (SW) 955 -1.7 -16.2°
Enters shadow 21:12:23 13° 171° (S) 1,325 -1.4 -16.5°
